DAL4187 KBNA-KLGA

Flight info

Callsign DAL4187
Flight time N/A
Altitude 35000
Route KRSTA4 OLSIE IIU Q139 CREEP Q29 WWSHR TEESY Q186 WEVEL ETG MIP4
Aircraft B738/M-SDE2E3FGHIRWXY/LB1

Departure

Time 2026-05-06 00:37
Airport Nashville International Airport (KBNA)

Arrival

Time N/A
Airport LaGuardia Airport (KLGA)
Time Latitude Longitude Altitude Speed Heading
2026-05-06 00:07 36.13332 -86.67249 608 ft 0 kts 160°
2026-05-06 00:26 36.13343 -86.67253 608 ft 2 kts 174°
2026-05-06 00:27 36.13359 -86.67252 608 ft 2 kts 189°
2026-05-06 00:27 36.13373 -86.67248 608 ft 2 kts 205°
2026-05-06 00:27 36.13386 -86.67238 608 ft 2 kts 220°
2026-05-06 00:27 36.13396 -86.67225 608 ft 2 kts 236°
2026-05-06 00:28 36.13404 -86.67209 608 ft 2 kts 236°
2026-05-06 00:28 36.13409 -86.67200 608 ft 0 kts 235°
2026-05-06 00:31 36.13408 -86.67202 608 ft 1 kts 237°
2026-05-06 00:31 36.13404 -86.67243 608 ft 5 kts 270°
2026-05-06 00:31 36.13412 -86.67284 608 ft 6 kts 287°
2026-05-06 00:32 36.13439 -86.67391 608 ft 18 kts 286°
2026-05-06 00:32 36.13479 -86.67554 608 ft 19 kts 287°
2026-05-06 00:32 36.13519 -86.67704 608 ft 16 kts 295°
2026-05-06 00:32 36.13606 -86.67736 608 ft 13 kts 15°
2026-05-06 00:33 36.13691 -86.67704 608 ft 11 kts 15°
2026-05-06 00:33 36.13744 -86.67740 608 ft 7 kts 289°
2026-05-06 00:33 36.13745 -86.67744 608 ft 0 kts 287°
2026-05-06 00:36 36.13752 -86.67773 608 ft 11 kts 287°
2026-05-06 00:36 36.13745 -86.67856 608 ft 9 kts 242°
2026-05-06 00:36 36.13662 -86.67902 608 ft 32 kts 197°
2026-05-06 00:37 36.13186 -86.68079 608 ft 110 kts 198°
2026-05-06 00:37 36.12233 -86.68471 629 ft 172 kts 198°
2026-05-06 00:37 36.11036 -86.68983 1146 ft 195 kts 199°
2026-05-06 00:37 36.09945 -86.69838 2312 ft 191 kts 224°
2026-05-06 00:38 36.09257 -86.71258 3106 ft 203 kts 238°
2026-05-06 00:38 36.08615 -86.72848 3872 ft 211 kts 236°
2026-05-06 00:38 36.07864 -86.74438 4547 ft 224 kts 236°
2026-05-06 00:38 36.07073 -86.76152 5212 ft 238 kts 244°
2026-05-06 00:39 36.06754 -86.78157 6147 ft 246 kts 270°
2026-05-06 00:39 36.07101 -86.80218 6981 ft 254 kts 280°
2026-05-06 00:39 36.07717 -86.82361 7022 ft 269 kts 291°